Previsão horária em Julianpol

Hoje, 21 Junho, Segunda-feira

Tempo Temperatura Precipitação Vento Pressão Humidade
00:00 +20°C° 0 mm 3 m/s 736 mmHg 83%
01:00 +20°C° 0 mm 3 m/s 736 mmHg 86%
02:00 +19°C° 0 mm 3 m/s 736 mmHg 87%
03:00 +19°C° 0 mm 3 m/s 735 mmHg 87%
04:00 +19°C° 0 mm 3 m/s 735 mmHg 88%
05:00 +20°C° 0 mm 4 m/s 735 mmHg 83%
06:00 +21°C° 0 mm 4 m/s 735 mmHg 77%
07:00 +23°C° 0 mm 4 m/s 735 mmHg 72%
08:00 +25°C° 0 mm 4 m/s 735 mmHg 66%
09:00 +27°C° 0 mm 4 m/s 735 mmHg 60%
10:00 +29°C° 0 mm 4 m/s 736 mmHg 54%
11:00 +30°C° 0 mm 3 m/s 735 mmHg 50%
12:00 +31°C° 0 mm 3 m/s 735 mmHg 47%
13:00 +32°C° 0 mm 2 m/s 735 mmHg 43%
14:00 +33°C° 0 mm 3 m/s 735 mmHg 43%
15:00 +33°C° 0 mm 3 m/s 734 mmHg 43%
16:00 +33°C° 0 mm 3 m/s 734 mmHg 43%
17:00 +30°C° 0 mm 3 m/s 734 mmHg 51%
18:00 +29°C° 0 mm 3 m/s 734 mmHg 59%
19:00 +27°C° 0 mm 3 m/s 734 mmHg 66%
20:00 +25°C° 1.1 mm 3 m/s 735 mmHg 75%
21:00 +22°C° 1.1 mm 4 m/s 735 mmHg 85%
22:00 +19°C° 1.1 mm 5 m/s 736 mmHg 94%
23:00 +19°C° 0.4 mm 4 m/s 735 mmHg 93%

Amanhã, 22 Junho, Terça-feira

Tempo Temperatura Precipitação Vento Pressão Humidade
00:00 +19°C° 0.4 mm 2 m/s 735 mmHg 92%
01:00 +20°C° 0.4 mm 1 m/s 735 mmHg 92%
02:00 +19°C° 0 mm 2 m/s 735 mmHg 92%
03:00 +19°C° 0 mm 2 m/s 735 mmHg 92%
04:00 +19°C° 0 mm 2 m/s 736 mmHg 92%
05:00 +20°C° 0.2 mm 2 m/s 736 mmHg 87%
06:00 +21°C° 0.2 mm 2 m/s 736 mmHg 83%
07:00 +22°C° 0.2 mm 3 m/s 737 mmHg 78%
08:00 +24°C° 0 mm 3 m/s 737 mmHg 73%
09:00 +26°C° 0 mm 3 m/s 737 mmHg 67%
10:00 +27°C° 0 mm 2 m/s 737 mmHg 61%
11:00 +28°C° 0 mm 2 m/s 737 mmHg 58%
12:00 +29°C° 0 mm 2 m/s 737 mmHg 56%
13:00 +30°C° 0 mm 2 m/s 737 mmHg 53%
14:00 +30°C° 0 mm 2 m/s 737 mmHg 53%
15:00 +30°C° 0 mm 3 m/s 737 mmHg 53%
16:00 +30°C° 0 mm 3 m/s 737 mmHg 53%
17:00 +28°C° 1.9 mm 4 m/s 737 mmHg 64%
18:00 +26°C° 1.9 mm 4 m/s 737 mmHg 75%
19:00 +22°C° 1.9 mm 5 m/s 737 mmHg 86%
20:00 +22°C° 2.7 mm 3 m/s 737 mmHg 88%
21:00 +21°C° 2.7 mm 2 m/s 738 mmHg 90%
22:00 +21°C° 2.7 mm 1 m/s 738 mmHg 92%
23:00 +21°C° 0.2 mm 1 m/s 738 mmHg 93%

Depois de amanhã, 23 Junho, Quarta-feira

Tempo Temperatura Precipitação Vento Pressão Humidade
00:00 +21°C° 0.2 mm 1 m/s 738 mmHg 93%
01:00 +20°C° 0.2 mm 1 m/s 739 mmHg 94%
02:00 +20°C° 0 mm 1 m/s 739 mmHg 95%
03:00 +20°C° 0 mm 1 m/s 739 mmHg 95%
04:00 +19°C° 0 mm 2 m/s 739 mmHg 95%
05:00 +20°C° 0 mm 2 m/s 739 mmHg 93%
06:00 +21°C° 0 mm 2 m/s 740 mmHg 90%
07:00 +21°C° 0 mm 2 m/s 740 mmHg 87%
08:00 +23°C° 0 mm 2 m/s 740 mmHg 84%
09:00 +24°C° 0 mm 2 m/s 741 mmHg 81%
10:00 +24°C° 0 mm 3 m/s 741 mmHg 77%
11:00 +25°C° 0 mm 3 m/s 741 mmHg 75%
12:00 +26°C° 0 mm 2 m/s 741 mmHg 72%
13:00 +26°C° 0 mm 2 m/s 741 mmHg 70%
14:00 +26°C° 0.3 mm 2 m/s 741 mmHg 69%
15:00 +27°C° 0.3 mm 2 m/s 741 mmHg 69%
16:00 +27°C° 0.3 mm 3 m/s 741 mmHg 68%
17:00 +26°C° 0.1 mm 3 m/s 741 mmHg 73%
18:00 +25°C° 0.1 mm 2 m/s 741 mmHg 77%
19:00 +24°C° 0.1 mm 2 m/s 741 mmHg 81%
20:00 +23°C° 0.1 mm 2 m/s 741 mmHg 84%
21:00 +23°C° 0.1 mm 2 m/s 742 mmHg 87%
22:00 +21°C° 0.1 mm 2 m/s 742 mmHg 90%
23:00 +20°C° 0 mm 2 m/s 742 mmHg 90%

24 Junho, Quinta-feira

Tempo Temperatura Precipitação Vento Pressão Humidade
00:00 +20°C° 0 mm 2 m/s 742 mmHg 90%
01:00 +19°C° 0 mm 2 m/s 742 mmHg 91%
02:00 +19°C° 0 mm 2 m/s 742 mmHg 91%
03:00 +19°C° 0 mm 2 m/s 742 mmHg 91%
04:00 +18°C° 0 mm 2 m/s 741 mmHg 92%
05:00 +20°C° 0 mm 1 m/s 742 mmHg 89%
06:00 +21°C° 0 mm 1 m/s 742 mmHg 87%
07:00 +22°C° 0 mm 1 m/s 742 mmHg 85%
08:00 +24°C° 0.2 mm 1 m/s 742 mmHg 80%
09:00 +25°C° 0.2 mm 1 m/s 742 mmHg 76%
10:00 +26°C° 0.2 mm 1 m/s 742 mmHg 71%
11:00 +27°C° 0.3 mm 1 m/s 742 mmHg 69%
12:00 +27°C° 0.3 mm 1 m/s 741 mmHg 67%
13:00 +28°C° 0.3 mm 1 m/s 741 mmHg 65%
14:00 +28°C° 0.2 mm 1 m/s 741 mmHg 64%
15:00 +29°C° 0.2 mm 1 m/s 741 mmHg 62%
16:00 +29°C° 0.2 mm 1 m/s 741 mmHg 60%
17:00 +28°C° 0.6 mm 1 m/s 740 mmHg 66%
18:00 +27°C° 0.6 mm 2 m/s 740 mmHg 72%
19:00 +26°C° 0.6 mm 2 m/s 740 mmHg 78%
20:00 +25°C° 1.5 mm 2 m/s 739 mmHg 83%
21:00 +23°C° 1.5 mm 2 m/s 739 mmHg 87%
22:00 +21°C° 1.5 mm 2 m/s 739 mmHg 92%
23:00 +21°C° 2.3 mm 2 m/s 738 mmHg 94%

25 Junho, Sexta-feira

Tempo Temperatura Precipitação Vento Pressão Humidade
00:00 +20°C° 2.3 mm 2 m/s 738 mmHg 95%
01:00 +20°C° 2.3 mm 3 m/s 738 mmHg 96%
02:00 +20°C° 4.6 mm 3 m/s 738 mmHg 96%
03:00 +20°C° 4.6 mm 4 m/s 737 mmHg 97%
04:00 +20°C° 4.6 mm 4 m/s 737 mmHg 97%
05:00 +20°C° 0 mm 4 m/s 738 mmHg 93%
06:00 +21°C° 0 mm 3 m/s 738 mmHg 89%
07:00 +21°C° 0 mm 3 m/s 738 mmHg 86%
08:00 +22°C° 0.1 mm 3 m/s 738 mmHg 83%
09:00 +22°C° 0.1 mm 4 m/s 738 mmHg 81%
10:00 +23°C° 0.1 mm 4 m/s 738 mmHg 78%
11:00 +23°C° 0.8 mm 4 m/s 738 mmHg 78%
12:00 +23°C° 0.8 mm 4 m/s 738 mmHg 77%
13:00 +24°C° 0.8 mm 3 m/s 738 mmHg 76%
14:00 +24°C° 1.7 mm 3 m/s 738 mmHg 76%
15:00 +24°C° 1.7 mm 3 m/s 738 mmHg 76%
16:00 +24°C° 1.7 mm 3 m/s 738 mmHg 76%
17:00 +22°C° 1.3 mm 3 m/s 738 mmHg 79%
18:00 +21°C° 1.3 mm 3 m/s 738 mmHg 83%
19:00 +20°C° 1.3 mm 3 m/s 738 mmHg 87%
20:00 +20°C° 0.5 mm 3 m/s 738 mmHg 88%
21:00 +19°C° 0.5 mm 3 m/s 739 mmHg 90%
22:00 +19°C° 0.5 mm 2 m/s 739 mmHg 91%
23:00 +18°C° 0.5 mm 2 m/s 739 mmHg 92%

26 Junho, Sábado

Tempo Temperatura Precipitação Vento Pressão Humidade
00:00 +18°C° 0.5 mm 3 m/s 739 mmHg 93%
01:00 +18°C° 0.5 mm 3 m/s 739 mmHg 94%
02:00 +18°C° 0.2 mm 3 m/s 739 mmHg 95%
03:00 +17°C° 0.2 mm 3 m/s 739 mmHg 96%
04:00 +17°C° 0.2 mm 3 m/s 739 mmHg 97%
05:00 +17°C° 0.3 mm 3 m/s 740 mmHg 95%
06:00 +17°C° 0.3 mm 4 m/s 740 mmHg 93%
07:00 +18°C° 0.3 mm 4 m/s 740 mmHg 91%
08:00 +18°C° 0.1 mm 4 m/s 741 mmHg 85%
09:00 +19°C° 0.1 mm 4 m/s 741 mmHg 80%
10:00 +20°C° 0.1 mm 4 m/s 741 mmHg 75%
11:00 +20°C° 0 mm 4 m/s 741 mmHg 72%
12:00 +21°C° 0 mm 4 m/s 740 mmHg 68%
13:00 +22°C° 0 mm 3 m/s 740 mmHg 65%
14:00 +21°C° 0.4 mm 4 m/s 740 mmHg 69%
15:00 +21°C° 0.4 mm 4 m/s 740 mmHg 74%
16:00 +20°C° 0.4 mm 5 m/s 740 mmHg 78%
17:00 +20°C° 0.5 mm 5 m/s 740 mmHg 81%
18:00 +19°C° 0.5 mm 5 m/s 740 mmHg 85%
19:00 +17°C° 0.5 mm 5 m/s 740 mmHg 88%
20:00 +17°C° 0 mm 4 m/s 740 mmHg 90%
21:00 +15°C° 0 mm 4 m/s 740 mmHg 92%
22:00 +14°C° 0 mm 4 m/s 740 mmHg 94%
23:00 +14°C° 0 mm 4 m/s 741 mmHg 95%
Mostrar mais

Necessitamos do seu Consentimento

A Meteoprog e os seus Fornecedores de Serviços podem armazenar e aceder a dados pessoais como cookies, identificadores do dispositivo ou outras tecnologias semelhantes existentes no seu dispositivo e processar estes dados para personalizar conteúdos e anúncios, assim como funcionalidades nas redes sociais e análise de tráfego.

  • Armazenar e/ou aceder a informações no seu dispositivo

    Os cookies, identificadores do dispositivo ou outras informações podem ser armazenados ou acedidos no seu dispositivo, para os fins acima indicados.

  • Anúncios e conteúdos personalizados, medição de anúncios e conteúdos, dados sobre o público-alvo e desenvolvimento de produtos

    Os anúncios e os conteúdos podem ser personalizados com base num perfil. Podem ser adicionados dados adicionais para uma maior personalização dos anúncios e dos conteúdos. A eficácia dos anúncios e dos conteúdos pode ser medida. Podem ser obtidas informações sobre o público que visualizou os anúncios e os conteúdos. Estes dados podem ser usados para desenvolver ou melhorar sistemas, softwares ou a experiência do utilizador.

Ao clicar em "Eu concordo”, permitirá o uso de cookies, identificadores do dispositivo e web beacons mencionados ou outras tecnologias semelhantes. As configurações do navegador do seu dispositivo podem ser alteradas.

Para certos fins, podem ser invocados interesses legítimos ao invés de consentimento. Pode ler mais informação sobre este assunto na nossa Política de Privacidade e Cookies.